Location: Caltech
(34.1382°N, 118.1253°W)
Time: 00:17:38
(UTC-07:00)

Oscar 10/S400 - Visible Passes

Search period start: 23 May 2015 00:00
Search period end: 02 June 2015 00:00
Orbit: 3850 x 35596 km, 25.8° (Epoch: 21 May)

Date Brightness Start Highest point End Pass type
(mag) Time Alt. Az. Time Alt. Az. Time Alt. Az.
25 May ? 04:50:26 10° W 05:08:06 50° SSW 06:02:15 10° SE visible
26 May ? 04:05:35 10° W 04:23:01 54° SSW 05:04:11 10° SE visible
27 May ? 03:20:29 10° W 03:38:18 59° SSW 04:11:10 10° ESE visible
28 May ? 02:34:56 10° W 02:53:49 63° SSW 03:21:03 10° ESE visible
29 May ? 01:48:42 10° W 02:09:26 66° S 02:32:48 10° ESE visible
30 May ? 01:01:26 10° W 01:25:06 68° S 01:45:50 10° ESE visible
31 May ? 00:12:36 10° W 00:40:43 69° S 00:59:45 10° E visible
31 May ? 23:21:19 10° WSW 23:56:14 69° S 00:14:20 10° E visible
01 Jun ? 22:25:54 10° WSW 23:11:35 67° S 23:29:22 10° E visible
